TimeCST,TemperatureF,Dew PointF,Humidity,Sea Level PressureIn,VisibilityMPH,Wind Direction,Wind SpeedMPH,Gust SpeedMPH,PrecipitationIn,Events,Conditions,WindDirDegrees,DateUTC
12:51 AM,24.1,10.0,55,30.35,10.0,NW,11.5,-,N/A,,Partly Cloudy,320,2013-01-21 06:51:00
1:51 AM,23.0,10.9,60,30.35,10.0,NW,9.2,-,N/A,,Mostly Cloudy,310,2013-01-21 07:51:00
2:51 AM,21.9,10.9,63,30.35,10.0,NW,9.2,-,N/A,,Mostly Cloudy,310,2013-01-21 08:51:00
3:42 AM,21.2,10.4,63,30.33,10.0,NNW,17.3,24.2,N/A,,Mostly Cloudy,330,2013-01-21 09:42:00
3:51 AM,21.0,10.0,63,30.37,10.0,NW,20.7,31.1,0.00,Snow,Light Snow,320,2013-01-21 09:51:00
4:05 AM,19.4,10.4,68,30.33,10.0,NW,11.5,23.0,0.00,Snow,Light Snow,320,2013-01-21 10:05:00
4:51 AM,19.9,10.0,65,30.37,10.0,WNW,6.9,-,0.00,,Scattered Clouds,300,2013-01-21 10:51:00
5:51 AM,19.9,9.0,62,30.37,10.0,WNW,10.4,-,N/A,,Mostly Cloudy,290,2013-01-21 11:51:00
6:51 AM,19.9,5.0,52,30.38,10.0,WNW,15.0,24.2,N/A,,Mostly Cloudy,300,2013-01-21 12:51:00
7:51 AM,19.9,3.0,48,30.38,10.0,WNW,10.4,-,N/A,,Mostly Cloudy,300,2013-01-21 13:51:00
8:51 AM,21.9,3.9,46,30.39,10.0,WNW,15.0,24.2,N/A,,Scattered Clouds,300,2013-01-21 14:51:00
9:51 AM,23.0,3.0,42,30.39,10.0,WNW,17.3,31.1,N/A,,Scattered Clouds,290,2013-01-21 15:51:00
10:51 AM,25.0,1.0,36,30.39,10.0,WNW,17.3,27.6,N/A,,Scattered Clouds,300,2013-01-21 16:51:00
11:51 AM,25.0,-2.0,31,30.37,10.0,NW,20.7,28.8,N/A,,Scattered Clouds,310,2013-01-21 17:51:00
12:51 PM,26.1,-2.0,30,30.36,10.0,WNW,16.1,27.6,N/A,,Scattered Clouds,300,2013-01-21 18:51:00
1:51 PM,24.1,-5.1,28,30.38,10.0,WNW,17.3,25.3,N/A,,Mostly Cloudy,290,2013-01-21 19:51:00
2:51 PM,21.9,-2.0,35,30.39,10.0,NW,13.8,21.9,N/A,,Mostly Cloudy,320,2013-01-21 20:51:00
3:51 PM,19.9,-4.0,35,30.41,10.0,NW,12.7,21.9,N/A,,Mostly Cloudy,320,2013-01-21 21:51:00
4:51 PM,19.0,-2.0,40,30.41,10.0,West,16.1,-,N/A,,Mostly Cloudy,280,2013-01-21 22:51:00
5:51 PM,19.0,-2.9,38,30.42,10.0,WNW,9.2,-,N/A,,Overcast,300,2013-01-21 23:51:00
6:51 PM,18.0,-2.9,40,30.43,10.0,NW,12.7,-,N/A,,Overcast,320,2013-01-22 00:51:00
7:51 PM,17.6,-2.2,42,30.37,10.0,NW,9.2,-,N/A,,Mostly Cloudy,320,2013-01-22 01:51:00
8:51 PM,17.1,-2.9,41,30.43,10.0,NNW,10.4,-,N/A,,Mostly Cloudy,330,2013-01-22 02:51:00
9:51 PM,16.0,-2.9,43,30.43,10.0,NW,10.4,-,N/A,,Mostly Cloudy,320,2013-01-22 03:51:00
10:51 PM,17.1,-2.9,41,30.44,10.0,NW,10.4,-,N/A,,Mostly Cloudy,310,2013-01-22 04:51:00
11:51 PM,15.1,-2.0,47,30.44,10.0,WNW,6.9,-,N/A,,Partly Cloudy,300,2013-01-22 05:51:00